| time (UTC) | temp F | wind direction | speed knots | gust knots | rain 1hr in | rain 24hr in | rain mn in | humidity % | barometer mb |
| 20260504010731 | 50 | 212 | 0.9 | 5.2 | 0.00 | 0.00 | 0.00 | 69 | 1013.3 |
| 20260504010227 | 50 | 242 | 0.0 | 0.0 | 0.00 | 0.00 | 0.00 | 68 | 1013.3 |
| 20260504005724 | 50 | 259 | 0.0 | 0.0 | 0.00 | 0.00 | 0.00 | 68 | 1013.4 |
| 20260504005221 | 51 | 193 | 0.0 | 0.0 | 0.00 | 0.00 | 0.00 | 67 | 1013.5 |
| 20260504004719 | 51 | 232 | 0.0 | 0.0 | 0.00 | 0.00 | 0.00 | 67 | 1013.4 |
| 20260504004215 | 51 | 221 | 0.9 | 5.2 | 0.00 | 0.00 | 0.00 | 66 | 1013.4 |
| 20260504003712 | 51 | 266 | 2.6 | 2.6 | 0.00 | 0.00 | 0.00 | 66 | 1013.1 |
| 20260504003209 | 51 | 221 | 0.0 | 2.6 | 0.00 | 0.00 | 0.00 | 65 | 1013.3 |
| 20260504002706 | 51 | 236 | 1.7 | 2.6 | 0.00 | 0.00 | 0.00 | 64 | 1013.1 |
| 20260504002203 | 52 | 290 | 2.6 | 5.2 | 0.00 | 0.00 | 0.00 | 63 | 1013.1 |
| 20260504001701 | 52 | 263 | 6.1 | 9.6 | 0.00 | 0.00 | 0.00 | 62 | 1013.1 |
| 20260504001157 | 53 | 251 | 0.0 | 0.0 | 0.00 | 0.00 | 0.00 | 60 | 1013.1 |
| 20260504000654 | 54 | 264 | 0.9 | 2.6 | 0.00 | 0.00 | 0.00 | 56 | 1013.1 |
| 20260504000151 | 56 | 291 | 3.5 | 4.3 | 0.00 | 0.00 | 0.00 | 47 | 1012.9 |
| 20260503235649 | 56 | 265 | 4.3 | 6.1 | 0.00 | 0.00 | 0.00 | 48 | 1012.6 |
| 20260503235145 | 57 | 206 | 0.9 | 2.6 | 0.00 | 0.00 | 0.00 | 46 | 1012.5 |
| 20260503234644 | 57 | 233 | 1.7 | 2.6 | 0.00 | 0.00 | 0.00 | 45 | 1012.7 |
| 20260503234142 | 57 | 203 | 2.6 | 4.3 | 0.00 | 0.00 | 0.00 | 45 | 1012.8 |
| 20260503233638 | 57 | 240 | 1.7 | 4.3 | 0.00 | 0.00 | 0.00 | 45 | 1012.7 |
| 20260503233134 | 57 | 254 | 1.7 | 4.3 | 0.00 | 0.00 | 0.00 | 45 | 1012.9 |
| 20260503232631 | 57 | 252 | 3.5 | 5.2 | 0.00 | 0.00 | 0.00 | 45 | 1012.9 |
| 20260503232128 | 57 | 230 | 2.6 | 4.3 | 0.00 | 0.00 | 0.00 | 45 | 1012.7 |
| 20260503231626 | 57 | 242 | 0.0 | 0.0 | 0.00 | 0.00 | 0.00 | 46 | 1012.7 |
| 20260503231122 | 57 | 232 | 0.0 | 0.9 | 0.00 | 0.00 | 0.00 | 44 | 1012.8 |
| 20260503230619 | 57 | 241 | 2.6 | 2.6 | 0.00 | 0.00 | 0.00 | 44 | 1012.8 |
| 20260503230117 | 58 | 263 | 0.0 | 0.0 | 0.00 | 0.00 | 0.00 | 46 | 1012.8 |
| 20260503225614 | 58 | 212 | 0.9 | 1.7 | 0.00 | 0.00 | 0.00 | 46 | 1012.7 |
| 20260503225113 | 58 | 200 | 5.2 | 7.0 | 0.00 | 0.00 | 0.00 | 44 | 1012.7 |
| 20260503224611 | 58 | 282 | 0.0 | 0.0 | 0.00 | 0.00 | 0.00 | 44 | 1013.0 |
| 20260503224109 | 58 | 255 | 2.6 | 4.3 | 0.00 | 0.00 | 0.00 | 44 | 1013.0 |
| 20260503223607 | 58 | 234 | 0.0 | 0.0 | 0.00 | 0.00 | 0.00 | 45 | 1012.8 |
| 20260503223102 | 58 | 255 | 0.9 | 0.9 | 0.00 | 0.00 | 0.00 | 44 | 1013.2 |
| 20260503222600 | 58 | 231 | 3.5 | 5.2 | 0.00 | 0.00 | 0.00 | 43 | 1013.2 |
| 20260503222058 | 58 | 222 | 3.5 | 5.2 | 0.00 | 0.00 | 0.00 | 43 | 1013.1 |
| 20260503221556 | 58 | 218 | 0.9 | 0.9 | 0.00 | 0.00 | 0.00 | 46 | 1013.1 |
| 20260503221053 | 58 | 240 | 0.9 | 1.7 | 0.00 | 0.00 | 0.00 | 45 | 1013.3 |
| 20260503220549 | 58 | 253 | 1.7 | 2.6 | 0.00 | 0.00 | 0.00 | 45 | 1013.1 |
| 20260503220046 | 58 | 241 | 0.0 | 0.0 | 0.00 | 0.00 | 0.00 | 43 | 1013.3 |
| 20260503215543 | 58 | 240 | 0.0 | 0.0 | 0.00 | 0.00 | 0.00 | 44 | 1013.0 |
| 20260503215040 | 58 | 228 | 2.6 | 2.6 | 0.00 | 0.00 | 0.00 | 44 | 1013.2 |
| 20260503214539 | 59 | 230 | 1.7 | 2.6 | 0.00 | 0.00 | 0.00 | 43 | 1013.4 |
| 20260503214035 | 59 | 237 | 0.0 | 0.0 | 0.00 | 0.00 | 0.00 | 44 | 1013.3 |
| 20260503213533 | 59 | 234 | 0.9 | 1.7 | 0.00 | 0.00 | 0.00 | 43 | 1013.2 |
| 20260503213030 | 59 | 246 | 0.9 | 1.7 | 0.00 | 0.00 | 0.00 | 42 | 1013.3 |
| 20260503212527 | 59 | 278 | 4.3 | 6.1 | 0.00 | 0.00 | 0.00 | 42 | 1013.2 |
| 20260503212024 | 59 | 240 | 0.0 | 0.0 | 0.00 | 0.00 | 0.00 | 43 | 1013.4 |
| 20260503211521 | 59 | 174 | 3.5 | 7.0 | 0.00 | 0.00 | 0.00 | 42 | 1013.3 |
| 20260503211017 | 58 | 263 | 1.7 | 2.6 | 0.00 | 0.00 | 0.00 | 43 | 1013.5 |
| 20260503210514 | 58 | 232 | 2.6 | 2.6 | 0.00 | 0.00 | 0.00 | 43 | 1013.4 |
| 20260503210009 | 59 | 250 | 2.6 | 5.2 | 0.00 | 0.00 | 0.00 | 43 | 1013.6 |
| 20260503205506 | 60 | 297 | 1.7 | 5.2 | 0.00 | 0.00 | 0.00 | 43 | 1013.4 |
| 20260503205003 | 59 | 252 | 5.2 | 11.3 | 0.00 | 0.00 | 0.00 | 42 | 1013.4 |
| 20260503204500 | 60 | 244 | 1.7 | 5.2 | 0.00 | 0.00 | 0.00 | 42 | 1013.4 |
| 20260503203956 | 59 | 244 | 2.6 | 4.3 | 0.00 | 0.00 | 0.00 | 43 | 1013.3 |
| 20260503203454 | 60 | 219 | 2.6 | 4.3 | 0.00 | 0.00 | 0.00 | 43 | 1013.7 |
| 20260503202950 | 60 | 220 | 0.9 | 1.7 | 0.00 | 0.00 | 0.00 | 44 | 1013.5 |
| 20260503202449 | 60 | 234 | 3.5 | 6.1 | 0.00 | 0.00 | 0.00 | 42 | 1013.8 |
| 20260503201947 | 58 | 221 | 6.1 | 8.7 | 0.00 | 0.00 | 0.00 | 44 | 1013.6 |
| 20260503201444 | 60 | 274 | 0.0 | 1.7 | 0.00 | 0.00 | 0.00 | 41 | 1013.8 |
| 20260503200941 | 61 | 245 | 0.0 | 0.0 | 0.00 | 0.00 | 0.00 | 41 | 1013.8 |
| 20260503200437 | 60 | 235 | 1.7 | 1.7 | 0.00 | 0.00 | 0.00 | 43 | 1013.8 |
| 20260503195934 | 60 | 271 | 0.0 | 0.0 | 0.00 | 0.00 | 0.00 | 43 | 1014.1 |
| 20260503195432 | 59 | 257 | 0.9 | 0.9 | 0.00 | 0.00 | 0.00 | 43 | 1014.2 |
| 20260503194928 | 59 | 228 | 0.9 | 2.6 | 0.00 | 0.00 | 0.00 | 44 | 1014.0 |
| 20260503194425 | 59 | 207 | 0.9 | 4.3 | 0.00 | 0.00 | 0.00 | 42 | 1013.8 |
| 20260503193920 | 59 | 210 | 2.6 | 4.3 | 0.00 | 0.00 | 0.00 | 44 | 1014.2 |
| 20260503193416 | 60 | 200 | 0.0 | 0.0 | 0.00 | 0.00 | 0.00 | 43 | 1014.1 |
| 20260503192912 | 59 | 218 | 3.5 | 6.1 | 0.00 | 0.00 | 0.00 | 42 | 1014.6 |
| 20260503192408 | 60 | 182 | 0.0 | 0.0 | 0.00 | 0.00 | 0.00 | 44 | 1014.5 |
| 20260503191904 | 59 | 255 | 0.0 | 0.0 | 0.00 | 0.00 | 0.00 | 43 | 1014.6 |
| 20260503191402 | 59 | 221 | 1.7 | 5.2 | 0.00 | 0.00 | 0.00 | 43 | 1014.7 |
| 20260503190858 | 59 | 216 | 0.0 | 0.9 | 0.00 | 0.00 | 0.00 | 42 | 1015.0 |
| 20260503190355 | 59 | 180 | 1.7 | 4.3 | 0.00 | 0.00 | 0.00 | 42 | 1014.8 |
| 20260503185852 | 59 | 225 | 0.9 | 2.6 | 0.00 | 0.00 | 0.00 | 42 | 1015.0 |
| 20260503185349 | 58 | 262 | 2.6 | 7.8 | 0.00 | 0.00 | 0.00 | 41 | 1015.2 |
| 20260503184848 | 61 | 229 | 0.0 | 0.0 | 0.00 | 0.00 | 0.00 | 42 | 1015.1 |
| 20260503184344 | 60 | 253 | 0.9 | 0.9 | 0.00 | 0.00 | 0.00 | 39 | 1015.0 |
| 20260503183840 | 60 | 214 | 2.6 | 4.3 | 0.00 | 0.00 | 0.00 | 40 | 1015.3 |
| 20260503183338 | 58 | 228 | 0.9 | 2.6 | 0.00 | 0.00 | 0.00 | 42 | 1015.2 |
| 20260503182835 | 58 | 235 | 0.0 | 0.0 | 0.00 | 0.00 | 0.00 | 43 | 1015.2 |
| 20260503182334 | 58 | 255 | 0.9 | 5.2 | 0.00 | 0.00 | 0.00 | 42 | 1015.3 |
| 20260503181831 | 59 | 288 | 1.7 | 4.3 | 0.00 | 0.00 | 0.00 | 42 | 1015.5 |
| 20260503181328 | 58 | 220 | 1.7 | 7.8 | 0.00 | 0.00 | 0.00 | 44 | 1015.4 |
| 20260503180824 | 58 | 244 | 2.6 | 2.6 | 0.00 | 0.00 | 0.00 | 46 | 1015.5 |
| 20260503180322 | 59 | 214 | 2.6 | 5.2 | 0.00 | 0.00 | 0.00 | 43 | 1015.4 |
| 20260503175818 | 59 | 135 | 0.9 | 4.3 | 0.00 | 0.00 | 0.00 | 48 | 1015.4 |
| 20260503175316 | 58 | 220 | 0.0 | 0.0 | 0.00 | 0.00 | 0.00 | 46 | 1015.6 |
| 20260503174812 | 59 | 267 | 0.9 | 1.7 | 0.00 | 0.00 | 0.00 | 44 | 1015.8 |
| 20260503174310 | 59 | 216 | 0.0 | 0.9 | 0.00 | 0.00 | 0.00 | 44 | 1015.6 |
| 20260503173805 | 60 | 223 | 0.9 | 4.3 | 0.00 | 0.00 | 0.00 | 49 | 1015.9 |
| 20260503173302 | 59 | 189 | 1.7 | 1.7 | 0.00 | 0.00 | 0.00 | 44 | 1016.0 |
| 20260503172759 | 58 | 237 | 0.0 | 0.0 | 0.00 | 0.00 | 0.00 | 47 | 1015.8 |
| 20260503172256 | 57 | 220 | 0.0 | 0.0 | 0.00 | 0.00 | 0.00 | 46 | 1016.0 |
| 20260503171752 | 56 | 247 | 0.0 | 0.0 | 0.00 | 0.00 | 0.00 | 47 | 1016.1 |
| 20260503171249 | 56 | 244 | 0.0 | 2.6 | 0.00 | 0.00 | 0.00 | 46 | 1016.2 |
| 20260503170746 | 56 | 267 | 3.5 | 7.0 | 0.00 | 0.00 | 0.00 | 47 | 1016.3 |
| 20260503170243 | 57 | 223 | 0.9 | 1.7 | 0.00 | 0.00 | 0.00 | 48 | 1016.2 |
| 20260503160205 | 55 | 247 | 0.0 | 0.0 | 0.00 | 0.00 | 0.00 | 52 | 1016.6 |
| 20260503150635 | 53 | 281 | 0.0 | 0.0 | 0.00 | 0.00 | 0.00 | 53 | 1017.1 |
| 20260503150131 | 53 | 236 | 1.7 | 4.3 | 0.00 | 0.00 | 0.00 | 52 | 1017.0 |
| 20260503131025 | 48 | 231 | 0.9 | 0.9 | 0.00 | 0.00 | 0.00 | 56 | 1017.2 |
| 20260503130522 | 47 | 233 | 0.9 | 1.7 | 0.00 | 0.00 | 0.00 | 56 | 1017.6 |
| 20260503110413 | 37 | 258 | 0.0 | 0.0 | 0.00 | 0.00 | 0.00 | 81 | 1017.1 |
| 20260503090304 | 35 | 252 | 0.0 | 0.0 | 0.00 | 0.00 | 0.00 | 80 | 1016.6 |
| 20260503081231 | 34 | 251 | 0.0 | 0.0 | 0.00 | 0.00 | 0.00 | 83 | 1016.5 |
| 20260503080727 | 35 | 251 | 0.0 | 0.0 | 0.00 | 0.00 | 0.00 | 83 | 1016.5 |
| 20260503080224 | 35 | 251 | 0.0 | 0.0 | 0.00 | 0.00 | 0.00 | 83 | 1016.6 |
| 20260503072701 | 35 | 251 | 0.0 | 0.0 | 0.00 | 0.00 | 0.00 | 83 | 1016.9 |
| 20260503072157 | 35 | 251 | 0.0 | 0.0 | 0.00 | 0.00 | 0.00 | 83 | 1016.6 |
| 20260503071654 | 35 | 251 | 0.0 | 0.0 | 0.00 | 0.00 | 0.00 | 83 | 1017.0 |
| 20260503071151 | 35 | 251 | 0.0 | 0.0 | 0.00 | 0.00 | 0.00 | 83 | 1016.9 |
| 20260503070648 | 35 | 250 | 0.0 | 0.0 | 0.00 | 0.00 | 0.00 | 83 | 1016.9 |
| 20260503070146 | 35 | 250 | 0.0 | 0.0 | 0.00 | 0.00 | 0.00 | 83 | 1016.6 |
| 20260503060110 | 36 | 250 | 0.0 | 0.0 | 0.00 | 0.00 | 0.00 | 86 | 1017.1 |
| 20260503055102 | 36 | 250 | 0.0 | 0.0 | 0.00 | 0.00 | 0.00 | 86 | 1017.1 |
| 20260503054557 | 36 | 250 | 0.0 | 0.0 | 0.00 | 0.00 | 0.00 | 86 | 1017.1 |
| 20260503054055 | 36 | 250 | 0.0 | 0.0 | 0.00 | 0.00 | 0.00 | 86 | 1017.3 |
| 20260503053553 | 36 | 250 | 0.0 | 0.0 | 0.00 | 0.00 | 0.00 | 86 | 1016.9 |
| 20260503053050 | 37 | 250 | 0.0 | 0.0 | 0.00 | 0.00 | 0.00 | 85 | 1016.9 |
| 20260503052547 | 37 | 250 | 0.0 | 0.0 | 0.00 | 0.00 | 0.00 | 85 | 1017.1 |
| 20260503052043 | 37 | 249 | 0.0 | 0.0 | 0.00 | 0.00 | 0.00 | 85 | 1016.9 |
| 20260503051539 | 38 | 249 | 0.0 | 0.0 | 0.00 | 0.00 | 0.00 | 85 | 1017.1 |
| 20260503051037 | 38 | 249 | 0.0 | 0.0 | 0.00 | 0.00 | 0.00 | 84 | 1017.2 |
| 20260503050532 | 38 | 249 | 0.0 | 0.0 | 0.00 | 0.00 | 0.00 | 85 | 1017.2 |
| 20260503050030 | 38 | 249 | 0.9 | 0.9 | 0.00 | 0.00 | 0.00 | 85 | 1017.2 |
| 20260503045527 | 38 | 249 | 0.0 | 0.0 | 0.00 | 0.00 | 0.00 | 85 | 1017.1 |
| 20260503045024 | 38 | 248 | 0.0 | 0.0 | 0.00 | 0.00 | 0.00 | 85 | 1017.0 |
| 20260503044521 | 38 | 248 | 0.0 | 0.0 | 0.00 | 0.00 | 0.00 | 85 | 1017.0 |
| 20260503044019 | 38 | 248 | 0.0 | 0.0 | 0.00 | 0.00 | 0.00 | 85 | 1016.9 |
| 20260503043514 | 38 | 248 | 0.0 | 0.0 | 0.00 | 0.00 | 0.00 | 84 | 1017.0 |
| 20260503043011 | 38 | 249 | 0.0 | 0.0 | 0.00 | 0.00 | 0.00 | 84 | 1016.9 |
| 20260503042508 | 38 | 249 | 0.0 | 0.0 | 0.00 | 0.00 | 0.00 | 84 | 1017.0 |
| 20260503042004 | 38 | 249 | 0.0 | 0.0 | 0.00 | 0.00 | 0.00 | 84 | 1016.9 |
| 20260503041501 | 38 | 249 | 0.0 | 0.0 | 0.00 | 0.00 | 0.00 | 83 | 1017.2 |
| 20260503040959 | 39 | 250 | 0.0 | 0.0 | 0.00 | 0.00 | 0.00 | 83 | 1017.2 |
| 20260503040456 | 39 | 250 | 0.0 | 0.0 | 0.00 | 0.00 | 0.00 | 83 | 1016.9 |
| 20260503035953 | 39 | 240 | 0.0 | 0.0 | 0.00 | 0.03 | 0.03 | 83 | 1017.1 |
| 20260503035450 | 39 | 240 | 0.0 | 0.0 | 0.00 | 0.03 | 0.03 | 83 | 1017.2 |
| 20260503034948 | 39 | 240 | 0.0 | 0.0 | 0.00 | 0.03 | 0.03 | 83 | 1017.2 |
| 20260503034445 | 39 | 240 | 0.0 | 0.0 | 0.00 | 0.03 | 0.03 | 82 | 1017.1 |
| 20260503033942 | 39 | 240 | 0.0 | 0.0 | 0.00 | 0.03 | 0.03 | 82 | 1017.1 |
| 20260503033439 | 39 | 240 | 0.0 | 0.0 | 0.00 | 0.03 | 0.03 | 82 | 1017.4 |
| 20260503032937 | 39 | 240 | 0.0 | 0.0 | 0.00 | 0.03 | 0.03 | 81 | 1017.4 |
| 20260503032435 | 39 | 240 | 0.0 | 0.0 | 0.00 | 0.03 | 0.03 | 81 | 1017.3 |
| 20260503031932 | 39 | 240 | 0.0 | 0.0 | 0.00 | 0.03 | 0.03 | 81 | 1017.2 |
| 20260503031430 | 39 | 240 | 0.0 | 0.0 | 0.00 | 0.03 | 0.03 | 82 | 1017.2 |
| 20260503030927 | 39 | 240 | 0.0 | 0.0 | 0.00 | 0.03 | 0.03 | 83 | 1017.3 |
| 20260503030423 | 39 | 240 | 0.0 | 0.0 | 0.00 | 0.03 | 0.03 | 83 | 1017.2 |
| 20260503025920 | 39 | 240 | 0.0 | 0.0 | 0.00 | 0.03 | 0.03 | 83 | 1017.2 |
| 20260503025417 | 39 | 240 | 0.0 | 0.0 | 0.00 | 0.03 | 0.03 | 83 | 1017.4 |
| 20260503024914 | 39 | 239 | 0.0 | 0.9 | 0.00 | 0.03 | 0.03 | 82 | 1017.6 |
| 20260503024411 | 39 | 241 | 0.0 | 0.0 | 0.00 | 0.03 | 0.03 | 82 | 1017.5 |
| 20260503023908 | 39 | 241 | 0.0 | 0.0 | 0.00 | 0.03 | 0.03 | 82 | 1017.3 |
| 20260503023405 | 39 | 241 | 0.0 | 0.0 | 0.00 | 0.03 | 0.03 | 82 | 1017.5 |
| 20260503022901 | 39 | 241 | 0.0 | 0.0 | 0.00 | 0.03 | 0.03 | 82 | 1017.4 |
| 20260503022356 | 39 | 241 | 0.0 | 0.0 | 0.00 | 0.03 | 0.03 | 83 | 1017.5 |
| 20260503021853 | 39 | 241 | 0.0 | 0.0 | 0.00 | 0.03 | 0.03 | 83 | 1017.5 |
| 20260503021349 | 39 | 241 | 0.0 | 0.0 | 0.00 | 0.03 | 0.03 | 84 | 1017.5 |
| 20260503020846 | 39 | 241 | 0.0 | 0.0 | 0.00 | 0.03 | 0.03 | 84 | 1017.7 |
| 20260503020344 | 39 | 241 | 0.0 | 0.0 | 0.00 | 0.03 | 0.03 | 85 | 1017.4 |
| 20260503015840 | 39 | 241 | 0.0 | 0.0 | 0.00 | 0.03 | 0.03 | 84 | 1017.6 |
| 20260503015337 | 40 | 241 | 0.0 | 0.0 | 0.00 | 0.03 | 0.03 | 84 | 1017.5 |
| 20260503014833 | 39 | 241 | 0.0 | 0.0 | 0.00 | 0.03 | 0.03 | 81 | 1017.3 |
| 20260503014331 | 39 | 241 | 0.0 | 0.0 | 0.00 | 0.03 | 0.03 | 81 | 1017.1 |
| 20260503013828 | 39 | 241 | 0.0 | 0.0 | 0.00 | 0.03 | 0.03 | 81 | 1017.4 |
| 20260503013325 | 40 | 241 | 0.0 | 0.0 | 0.00 | 0.03 | 0.03 | 82 | 1017.4 |
| 20260503012822 | 40 | 241 | 0.0 | 0.0 | 0.00 | 0.03 | 0.03 | 82 | 1017.4 |
| 20260503012320 | 40 | 241 | 0.0 | 0.0 | 0.00 | 0.03 | 0.03 | 83 | 1017.4 |
| 20260503011816 | 40 | 241 | 0.0 | 0.0 | 0.00 | 0.03 | 0.03 | 82 | 1017.4 |
| 20260503011313 | 40 | 241 | 0.0 | 0.0 | 0.00 | 0.03 | 0.03 | 81 | 1017.4 |